STARLINK-31975 (59886 NORAD) Tracking and Keplerian Element Data

This shows tracking and keplerian element data for the satellite.

Feedback or suggestion? Click here.




ElementValue
Catalog59886
NameSTARLINK-31975
Epoch Orbit4008
Epoch Day34.96821666
Epoch Year2025
RAAN223.563
Inclination43.002
Eccentricity0.0001691
Argument of Perigee265.6911
Mean Anonmoly94.3752
Mean Motion15.40693199
Decay Rate-3.35E-06
L11 59886U 24100B 25034.96821666 -.00000335 00000+0 -74394-6 0 9996
L22 59886 43.0020 223.5630 0001691 265.6911 94.3752 15.40693199 40084



Live tracking and technical data element details for STARLINK-31975 (NORAD 59886). STARLINK-31975 can be tracked NOW for your location showing map with azimuth and elevation plus other details from your city location.







IsCatalogInMostPopularTable: catalog: 59886, numindb: 74
Update: records affected: 1



GetName: 59886 STARLINK-31975

Hit Count: updated at: Mon, 23 Jun 2025 12:18:40 GMT